Preview of NWS' New Version of Forecast
This preview is not operational and should not be used for support decisions.

Regional Weather Roundup (RWR)

Issued by National Weather Service (NWS)

                            
000
ASUS44 KJAN 160210
RWRMS 

MISSISSIPPI HOURLY WEATHER ROUNDUP
NATIONAL WEATHER SERVICE JACKSON MS
800 PM CST FRI FEB 15 2019

NOTE: "FAIR: INDICATES FEW OR NO CLOUDS BELOW 12,000 FEET WITH NO
SIGNIFICANT WEATHER AND/OR OBSTRUCTIONS TO VISIBILITY.

MSZ001>002-007>008-010>013-018>021-025>028-034>036-160300-
NORTHWEST MISSISSIPPI
  
CITY           SKY/WX    TMP DP  RH WIND       PRES   REMARKS
BATESVILLE     CLOUDY    48  46  93 NE6       29.73F                  
CLARKSDALE     CLOUDY    45  45 100 N15G23    29.78R FOG              
CLEVELAND      CLOUDY    47  47 100 N16       29.76R                  
GREENWOOD      CLOUDY    63  60  90 S3        29.71F                  
GREENVILLE     CLOUDY    48  45  89 N13       29.75R                  
OLIVE BRANCH   CLOUDY    39  39 100 NE12G21   29.80F FOG     WCI  32  
OXFORD         LGT RAIN  48  46  93 NE12      29.76F                  
TUNICA           N/A     37  37 100 N14       29.81R WCI  29          
WINONA         DRIZZLE   62  62 100 CALM      29.72F                  
$$

MSZ003>006-009-014>017-022>024-029>033-037>039-160300-
NORTHEAST MISSISSIPPI
  
CITY           SKY/WX    TMP DP  RH WIND       PRES   REMARKS
ABERDEEN       CLOUDY    59  59 100 SE6       29.74F FOG              
COLUMBUS AFB   CLOUDY    63  61  94 S7        29.73F                  
CORINTH        LGT RAIN  45  43  93 NE9       29.77F                  
GOLDN TRIANGLE CLOUDY    63  61  93 S6        29.75S                  
STARKVILLE     CLOUDY    61  59  94 S5        29.76S                  
TUPELO         LGT RAIN  54  52  93 NE6       29.73F FOG              
$$

MSZ040-058-160300-
CENTRAL MISSISSIPPI
  
CITY           SKY/WX    TMP DP  RH WIND       PRES   REMARKS
JACKSON INTL   FAIR      66  62  87 S12       29.73R                  
JACKSON HAWKNS MOCLDY    66  64  93 S10       29.74R                  
MADISON        MOCLDY    64  64 100 S9        29.73R                  
MERIDIAN KEY   CLOUDY    64  62  93 S12       29.77S                  
MERIDIAN NAS   CLOUDY    64  63  96 S7        29.77S                  
RAYMOND        MOCLDY    68  66  94 S12       29.72S                  
VICKSBURG VKS  CLOUDY    72  61  68 SW8G16    29.72S                  
$$

MSZ059>079-160300-
SOUTH MISSISSIPPI
  
CITY           SKY/WX    TMP DP  RH WIND       PRES   REMARKS
HATTIESBURG    CLOUDY    64  62  93 S7        29.82S                  
LAUREL         CLOUDY    64  64 100 S8        29.80S                  
MCCOMB         CLOUDY    67  62  84 S12       29.78S                  
NATCHEZ        CLOUDY    69  63  81 SW9G17    29.75R                  
PINE BELT      CLOUDY    64  63  96 S7        29.81R                  
$$

MSZ080>082-160300-
COASTAL MISSISSIPPI
  
CITY           SKY/WX    TMP DP  RH WIND       PRES   REMARKS
BAY ST LOUIS   CLOUDY    66  61  82 SW10      29.84S                  
BILOXI         CLOUDY    63  60  91 SW9       29.83F                  
PASCAGOULA     CLOUDY    66  60  81 VRB5      29.84F                  
GULFPORT       CLOUDY    64  60  87 S7        29.83S                  
$$

LAZ007>009-015>016-023>026-160300-
NORTHEAST LOUISIANA
  
CITY           SKY/WX    TMP DP  RH WIND       PRES   REMARKS
BASTROP        CLOUDY    65  62  89 N5        29.73R                  
TALLULAH/VBURG MOCLDY    70  60  70 VRB3      29.72S                  
VIDALIA        CLOUDY    66  62  88 S8        29.74S                  
$$